{"data":{"norad_id":67642,"intl_designator":"2026-020AB","name":"STARLINK-36556","alt_names":[],"object_type":"PAYLOAD","status":"ACTIVE","operator":null,"country":"US","launch_date":"2026-01-30","launch_site_code":"AFETR","launch_vehicle":null,"mission":null,"orbit_class":"UNKNOWN","rcs_meters":null,"size_class":null,"mass_kg":null,"dimensions":null,"purposes":["comms"],"wikipedia_slug":null,"has_3d_model":false,"image_url":null,"decayed_at":null,"tle_current":{"epoch":"2026-09-19T21:52:54.518304Z","epoch_age_seconds":120015,"freshness":"FRESH","line1":"1 67642U 26020AB  26262.91174211  .00017991  00000+0  66142-3 0  9997","line2":"2 67642  43.0002 123.2334 0001213 265.3147  94.7566 15.27593544 35818","mean_motion":15.27593544,"eccentricity":0.0001213,"inclination_deg":43.0002,"raan_deg":123.2334,"arg_perigee_deg":265.3147,"mean_anomaly_deg":94.7566,"bstar":0.00066142,"rev_number":3581,"period_min":94.265912922711,"perigee_km":482.17628377678,"apogee_km":483.84079768496,"semimajor_km":6861.1455407309,"source":"CELESTRAK","updated_at":"2026-09-20T09:00:43.616643Z"}}}